When you browse on this site, cookies collect data to enhance your experience and personalize the content and advertising you see.
Visit our Privacy Policy to learn more. By continuing to use the site, you agree to this use of cookies and data.
  • In Lithuania
  • List of Countries
  • For 7 days
  • Water Temperature
  • Weather Map
  • Weather Widgets
  • user-avatar
    Login

    Hourly Weather Sevan

    Today, 30 May, Saturday

    Time Temperature Precipitation Wind Pressure Humidity
    00:00 +16°C° 0 mm 2 mps 640 mmHg 43%
    01:00 +16°C° 0 mm 2 mps 640 mmHg 44%
    02:00 +15°C° 0 mm 2 mps 639 mmHg 45%
    03:00 +15°C° 0 mm 1 mps 639 mmHg 46%
    04:00 +15°C° 0 mm 1 mps 639 mmHg 49%
    05:00 +16°C° 0 mm 1 mps 640 mmHg 52%
    06:00 +16°C° 0 mm 1 mps 640 mmHg 55%
    07:00 +18°C° 0 mm 2 mps 641 mmHg 49%
    08:00 +20°C° 0 mm 2 mps 641 mmHg 44%
    09:00 +21°C° 0 mm 2 mps 641 mmHg 38%
    10:00 +23°C° 0 mm 2 mps 641 mmHg 36%
    11:00 +24°C° 0 mm 3 mps 641 mmHg 34%
    12:00 +25°C° 0 mm 3 mps 641 mmHg 31%
    13:00 +25°C° 0 mm 3 mps 641 mmHg 31%
    14:00 +26°C° 0 mm 2 mps 641 mmHg 30%
    15:00 +26°C° 0 mm 2 mps 641 mmHg 30%
    16:00 +26°C° 0 mm 2 mps 641 mmHg 34%
    17:00 +25°C° 0 mm 2 mps 641 mmHg 38%
    18:00 +25°C° 0 mm 1 mps 641 mmHg 43%
    19:00 +21°C° 0 mm 2 mps 641 mmHg 45%
    20:00 +19°C° 0 mm 2 mps 640 mmHg 47%
    21:00 +17°C° 0 mm 3 mps 640 mmHg 49%
    22:00 +17°C° 0 mm 2 mps 640 mmHg 49%
    23:00 +16°C° 0 mm 2 mps 640 mmHg 50%

    Tomorrow, 31 May, Sunday

    Time Temperature Precipitation Wind Pressure Humidity
    00:00 +15°C° 0 mm 2 mps 641 mmHg 50%
    01:00 +15°C° 0 mm 2 mps 641 mmHg 51%
    02:00 +14°C° 0 mm 2 mps 641 mmHg 51%
    03:00 +14°C° 0 mm 1 mps 641 mmHg 51%
    04:00 +15°C° 0 mm 1 mps 641 mmHg 53%
    05:00 +15°C° 0 mm 1 mps 642 mmHg 56%
    06:00 +16°C° 0 mm 1 mps 642 mmHg 58%
    07:00 +18°C° 0 mm 1 mps 642 mmHg 51%
    08:00 +20°C° 0 mm 1 mps 643 mmHg 44%
    09:00 +21°C° 0 mm 1 mps 643 mmHg 37%
    10:00 +21°C° 0 mm 2 mps 643 mmHg 35%
    11:00 +23°C° 0 mm 2 mps 643 mmHg 32%
    12:00 +24°C° 0 mm 3 mps 643 mmHg 29%
    13:00 +24°C° 0 mm 3 mps 643 mmHg 29%
    14:00 +25°C° 0 mm 2 mps 642 mmHg 28%
    15:00 +25°C° 0 mm 2 mps 642 mmHg 27%
    16:00 +24°C° 0 mm 2 mps 642 mmHg 32%
    17:00 +24°C° 0 mm 1 mps 642 mmHg 37%
    18:00 +21°C° 0 mm 0 mps 642 mmHg 42%
    19:00 +21°C° 0 mm 1 mps 641 mmHg 46%
    20:00 +18°C° 0 mm 2 mps 641 mmHg 49%
    21:00 +16°C° 0 mm 3 mps 641 mmHg 53%
    22:00 +16°C° 0 mm 3 mps 641 mmHg 53%
    23:00 +16°C° 0 mm 2 mps 640 mmHg 53%

    Day after tomorrow, 1 June, Monday

    Time Temperature Precipitation Wind Pressure Humidity
    00:00 +15°C° 0 mm 2 mps 640 mmHg 52%
    01:00 +15°C° 0 mm 2 mps 640 mmHg 53%
    02:00 +14°C° 0 mm 2 mps 640 mmHg 53%
    03:00 +14°C° 0 mm 2 mps 640 mmHg 54%
    04:00 +15°C° 0 mm 2 mps 640 mmHg 55%
    05:00 +15°C° 0 mm 1 mps 640 mmHg 57%
    06:00 +16°C° 0 mm 1 mps 641 mmHg 59%
    07:00 +19°C° 0 mm 1 mps 641 mmHg 52%
    08:00 +20°C° 0 mm 2 mps 641 mmHg 45%
    09:00 +21°C° 0 mm 2 mps 642 mmHg 38%
    10:00 +23°C° 0 mm 2 mps 642 mmHg 36%
    11:00 +24°C° 0 mm 3 mps 642 mmHg 34%
    12:00 +25°C° 0 mm 3 mps 642 mmHg 32%
    13:00 +25°C° 0 mm 3 mps 642 mmHg 32%
    14:00 +26°C° 0 mm 3 mps 642 mmHg 31%
    15:00 +26°C° 0 mm 3 mps 641 mmHg 31%
    16:00 +25°C° 0 mm 3 mps 641 mmHg 35%
    17:00 +25°C° 0 mm 2 mps 641 mmHg 39%
    18:00 +24°C° 0 mm 2 mps 641 mmHg 42%
    19:00 +21°C° 0 mm 2 mps 640 mmHg 42%
    20:00 +19°C° 0 mm 2 mps 640 mmHg 42%
    21:00 +18°C° 0 mm 2 mps 640 mmHg 41%
    22:00 +17°C° 0 mm 2 mps 640 mmHg 42%
    23:00 +16°C° 0 mm 2 mps 639 mmHg 42%

    2 June, Tuesday

    Time Temperature Precipitation Wind Pressure Humidity
    00:00 +16°C° 0 mm 2 mps 639 mmHg 42%
    01:00 +15°C° 0 mm 2 mps 639 mmHg 43%
    02:00 +15°C° 0 mm 2 mps 639 mmHg 43%
    03:00 +15°C° 0 mm 2 mps 639 mmHg 44%
    04:00 +16°C° 0 mm 2 mps 639 mmHg 46%
    05:00 +16°C° 0 mm 2 mps 639 mmHg 49%
    06:00 +17°C° 0 mm 2 mps 639 mmHg 52%
    07:00 +19°C° 0 mm 2 mps 640 mmHg 47%
    08:00 +21°C° 0 mm 3 mps 640 mmHg 42%
    09:00 +24°C° 0 mm 3 mps 641 mmHg 37%
    10:00 +25°C° 0 mm 4 mps 641 mmHg 35%
    11:00 +25°C° 0 mm 4 mps 641 mmHg 34%
    12:00 +26°C° 0 mm 4 mps 641 mmHg 33%
    13:00 +27°C° 0 mm 5 mps 641 mmHg 33%
    14:00 +27°C° 0 mm 5 mps 640 mmHg 33%
    15:00 +27°C° 0 mm 5 mps 640 mmHg 33%
    16:00 +26°C° 0 mm 4 mps 640 mmHg 36%
    17:00 +26°C° 0 mm 3 mps 640 mmHg 40%
    18:00 +25°C° 0 mm 2 mps 640 mmHg 43%
    19:00 +23°C° 0.2 mm 2 mps 640 mmHg 46%
    20:00 +20°C° 0.2 mm 2 mps 639 mmHg 49%
    21:00 +17°C° 0.2 mm 2 mps 639 mmHg 51%
    22:00 +17°C° 0.1 mm 2 mps 639 mmHg 52%
    23:00 +16°C° 0.1 mm 2 mps 638 mmHg 53%

    3 June, Wednesday

    Time Temperature Precipitation Wind Pressure Humidity
    00:00 +15°C° 0.1 mm 2 mps 638 mmHg 54%
    01:00 +15°C° 0 mm 2 mps 638 mmHg 53%
    02:00 +15°C° 0 mm 2 mps 638 mmHg 52%
    03:00 +14°C° 0 mm 2 mps 638 mmHg 51%
    04:00 +15°C° 0 mm 1 mps 638 mmHg 52%
    05:00 +16°C° 0 mm 1 mps 638 mmHg 52%
    06:00 +16°C° 0 mm 1 mps 639 mmHg 52%
    07:00 +18°C° 0 mm 2 mps 639 mmHg 46%
    08:00 +20°C° 0 mm 2 mps 640 mmHg 40%
    09:00 +23°C° 0 mm 2 mps 640 mmHg 34%
    10:00 +24°C° 0 mm 3 mps 640 mmHg 33%
    11:00 +25°C° 0 mm 3 mps 641 mmHg 32%
    12:00 +26°C° 0 mm 4 mps 641 mmHg 31%
    13:00 +25°C° 0 mm 5 mps 641 mmHg 36%
    14:00 +23°C° 0 mm 6 mps 641 mmHg 40%
    15:00 +23°C° 0 mm 6 mps 640 mmHg 44%
    16:00 +22°C° 0.1 mm 5 mps 640 mmHg 49%
    17:00 +21°C° 0.1 mm 3 mps 640 mmHg 53%
    18:00 +22°C° 0.1 mm 1 mps 641 mmHg 58%
    19:00 +20°C° 0.1 mm 1 mps 640 mmHg 61%
    20:00 +18°C° 0.1 mm 1 mps 640 mmHg 65%
    21:00 +16°C° 0.1 mm 1 mps 639 mmHg 68%
    22:00 +16°C° 0 mm 1 mps 639 mmHg 67%
    23:00 +15°C° 0 mm 2 mps 639 mmHg 66%

    4 June, Thursday

    Time Temperature Precipitation Wind Pressure Humidity
    00:00 +15°C° 0 mm 2 mps 639 mmHg 65%
    01:00 +15°C° 0 mm 2 mps 639 mmHg 65%
    02:00 +16°C° 0 mm 2 mps 639 mmHg 64%
    03:00 +16°C° 0 mm 2 mps 639 mmHg 63%
    04:00 +16°C° 0 mm 2 mps 639 mmHg 63%
    05:00 +18°C° 0 mm 1 mps 639 mmHg 63%
    06:00 +19°C° 0 mm 1 mps 639 mmHg 63%
    07:00 +19°C° 0 mm 2 mps 639 mmHg 57%
    08:00 +21°C° 0 mm 2 mps 640 mmHg 51%
    09:00 +22°C° 0 mm 3 mps 640 mmHg 44%
    10:00 +24°C° 0 mm 3 mps 640 mmHg 41%
    11:00 +25°C° 0 mm 3 mps 640 mmHg 38%
    12:00 +26°C° 0 mm 3 mps 641 mmHg 34%
    13:00 +27°C° 0 mm 3 mps 641 mmHg 32%
    14:00 +27°C° 0 mm 3 mps 641 mmHg 31%
    15:00 +27°C° 0 mm 3 mps 640 mmHg 29%
    16:00 +27°C° 0 mm 2 mps 641 mmHg 32%
    17:00 +26°C° 0 mm 2 mps 641 mmHg 36%
    18:00 +26°C° 0 mm 1 mps 641 mmHg 39%
    19:00 +24°C° 0 mm 2 mps 640 mmHg 40%
    20:00 +20°C° 0 mm 2 mps 640 mmHg 41%
    21:00 +18°C° 0 mm 3 mps 640 mmHg 42%
    22:00 +18°C° 0 mm 2 mps 640 mmHg 45%
    23:00 +17°C° 0 mm 2 mps 640 mmHg 49%
    Show more